Hourly Weather Rumbek

Today, 15 April, Thursday

Time Temperature Precipitation Wind Pressure Humidity
00:00 +32°C° 0 mm 1 mps 720 mmHg 33%
01:00 +32°C° 0 mm 1 mps 719 mmHg 35%
02:00 +31°C° 0 mm 2 mps 719 mmHg 37%
03:00 +30°C° 0 mm 1 mps 719 mmHg 41%
04:00 +29°C° 0 mm 1 mps 720 mmHg 46%
05:00 +28°C° 0 mm 1 mps 720 mmHg 50%
06:00 +29°C° 0 mm 1 mps 721 mmHg 47%
07:00 +30°C° 0 mm 2 mps 721 mmHg 45%
08:00 +31°C° 0 mm 2 mps 722 mmHg 42%
09:00 +35°C° 0 mm 2 mps 722 mmHg 36%
10:00 +36°C° 0 mm 1 mps 722 mmHg 31%
11:00 +40°C° 0 mm 1 mps 722 mmHg 26%
12:00 +40°C° 0 mm 1 mps 721 mmHg 24%
13:00 +40°C° 0 mm 1 mps 720 mmHg 23%
14:00 +41°C° 0 mm 1 mps 719 mmHg 22%
15:00 +39°C° 0 mm 1 mps 719 mmHg 24%
16:00 +38°C° 0 mm 2 mps 718 mmHg 27%
17:00 +37°C° 0 mm 3 mps 718 mmHg 30%
18:00 +36°C° 0 mm 3 mps 718 mmHg 34%
19:00 +35°C° 0 mm 2 mps 719 mmHg 37%
20:00 +34°C° 0 mm 2 mps 719 mmHg 40%
21:00 +32°C° 0 mm 2 mps 719 mmHg 42%
22:00 +31°C° 0 mm 2 mps 719 mmHg 45%
23:00 +31°C° 0 mm 2 mps 719 mmHg 47%

Tomorrow, 16 April, Friday

Time Temperature Precipitation Wind Pressure Humidity
00:00 +30°C° 0 mm 2 mps 719 mmHg 49%
01:00 +29°C° 0 mm 2 mps 719 mmHg 52%
02:00 +29°C° 0 mm 2 mps 718 mmHg 54%
03:00 +29°C° 0 mm 2 mps 718 mmHg 53%
04:00 +29°C° 0 mm 2 mps 719 mmHg 53%
05:00 +29°C° 0 mm 2 mps 719 mmHg 52%
06:00 +30°C° 0 mm 1 mps 719 mmHg 48%
07:00 +31°C° 0 mm 1 mps 720 mmHg 45%
08:00 +32°C° 0 mm 1 mps 721 mmHg 41%
09:00 +35°C° 0 mm 1 mps 721 mmHg 35%
10:00 +39°C° 0 mm 1 mps 721 mmHg 29%
11:00 +41°C° 0 mm 1 mps 721 mmHg 24%
12:00 +42°C° 0 mm 1 mps 720 mmHg 21%
13:00 +43°C° 0 mm 1 mps 719 mmHg 19%
14:00 +43°C° 0 mm 2 mps 718 mmHg 16%
15:00 +43°C° 0 mm 2 mps 718 mmHg 16%
16:00 +42°C° 0 mm 1 mps 718 mmHg 17%
17:00 +42°C° 0 mm 1 mps 717 mmHg 17%
18:00 +41°C° 0 mm 1 mps 717 mmHg 19%
19:00 +39°C° 0 mm 1 mps 718 mmHg 21%
20:00 +37°C° 0 mm 1 mps 718 mmHg 22%
21:00 +36°C° 0 mm 1 mps 718 mmHg 24%
22:00 +35°C° 0 mm 1 mps 718 mmHg 25%
23:00 +35°C° 0 mm 1 mps 718 mmHg 26%

Day after tomorrow, 17 April, Saturday

Time Temperature Precipitation Wind Pressure Humidity
00:00 +34°C° 0 mm 1 mps 718 mmHg 28%
01:00 +34°C° 0 mm 1 mps 718 mmHg 29%
02:00 +33°C° 0 mm 1 mps 718 mmHg 31%
03:00 +32°C° 0 mm 1 mps 718 mmHg 33%
04:00 +31°C° 0 mm 1 mps 718 mmHg 36%
05:00 +31°C° 0 mm 1 mps 719 mmHg 38%
06:00 +32°C° 0 mm 1 mps 719 mmHg 36%
07:00 +33°C° 0 mm 1 mps 720 mmHg 34%
08:00 +34°C° 0 mm 1 mps 721 mmHg 31%
09:00 +38°C° 0 mm 2 mps 721 mmHg 28%
10:00 +40°C° 0 mm 2 mps 721 mmHg 25%
11:00 +42°C° 0 mm 2 mps 720 mmHg 22%
12:00 +42°C° 0 mm 2 mps 720 mmHg 21%
13:00 +42°C° 0 mm 2 mps 719 mmHg 20%
14:00 +42°C° 0 mm 2 mps 718 mmHg 20%
15:00 +41°C° 0 mm 2 mps 718 mmHg 21%
16:00 +40°C° 0 mm 2 mps 717 mmHg 23%
17:00 +39°C° 0 mm 3 mps 717 mmHg 25%
18:00 +38°C° 0.1 mm 3 mps 718 mmHg 28%
19:00 +37°C° 0.1 mm 2 mps 718 mmHg 31%
20:00 +35°C° 0.1 mm 2 mps 719 mmHg 34%
21:00 +35°C° 0 mm 2 mps 719 mmHg 38%
22:00 +34°C° 0 mm 2 mps 719 mmHg 41%
23:00 +32°C° 0 mm 1 mps 719 mmHg 44%

18 April, Sunday

Time Temperature Precipitation Wind Pressure Humidity
00:00 +31°C° 0 mm 2 mps 719 mmHg 47%
01:00 +30°C° 0 mm 2 mps 719 mmHg 50%
02:00 +29°C° 0 mm 2 mps 718 mmHg 54%
03:00 +29°C° 0 mm 2 mps 719 mmHg 55%
04:00 +28°C° 0 mm 2 mps 719 mmHg 56%
05:00 +28°C° 0 mm 1 mps 719 mmHg 58%
06:00 +29°C° 0 mm 2 mps 720 mmHg 53%
07:00 +31°C° 0 mm 2 mps 720 mmHg 48%
08:00 +32°C° 0 mm 2 mps 721 mmHg 43%
09:00 +36°C° 0 mm 3 mps 721 mmHg 37%
10:00 +38°C° 0 mm 3 mps 721 mmHg 32%
11:00 +42°C° 0 mm 3 mps 721 mmHg 26%
12:00 +41°C° 0 mm 2 mps 720 mmHg 24%
13:00 +42°C° 0 mm 2 mps 719 mmHg 21%
14:00 +43°C° 0 mm 2 mps 718 mmHg 19%
15:00 +42°C° 0 mm 2 mps 718 mmHg 20%
16:00 +42°C° 0 mm 2 mps 718 mmHg 21%
17:00 +42°C° 0 mm 3 mps 718 mmHg 21%
18:00 +38°C° 0.4 mm 2 mps 718 mmHg 29%
19:00 +36°C° 0.4 mm 2 mps 719 mmHg 36%
20:00 +32°C° 0.4 mm 2 mps 720 mmHg 44%
21:00 +31°C° 0 mm 2 mps 720 mmHg 48%
22:00 +31°C° 0 mm 2 mps 720 mmHg 51%
23:00 +30°C° 0 mm 1 mps 720 mmHg 55%

19 April, Monday

Time Temperature Precipitation Wind Pressure Humidity
00:00 +29°C° 0 mm 2 mps 720 mmHg 57%
01:00 +29°C° 0 mm 3 mps 720 mmHg 58%
02:00 +28°C° 0 mm 3 mps 719 mmHg 60%
03:00 +28°C° 0 mm 3 mps 720 mmHg 61%
04:00 +28°C° 0 mm 2 mps 720 mmHg 62%
05:00 +28°C° 0 mm 2 mps 720 mmHg 63%
06:00 +29°C° 0 mm 2 mps 721 mmHg 61%
07:00 +29°C° 0 mm 2 mps 721 mmHg 58%
08:00 +30°C° 0 mm 2 mps 722 mmHg 55%
09:00 +32°C° 0 mm 2 mps 722 mmHg 49%
10:00 +35°C° 0 mm 2 mps 722 mmHg 42%
11:00 +37°C° 0 mm 2 mps 722 mmHg 36%
12:00 +39°C° 0 mm 2 mps 721 mmHg 32%
13:00 +40°C° 0 mm 2 mps 720 mmHg 28%
14:00 +41°C° 0 mm 2 mps 719 mmHg 25%
15:00 +41°C° 0 mm 2 mps 719 mmHg 24%
16:00 +41°C° 0 mm 2 mps 718 mmHg 23%
17:00 +41°C° 0 mm 1 mps 718 mmHg 23%
18:00 +38°C° 0.3 mm 2 mps 718 mmHg 31%
19:00 +35°C° 0.3 mm 3 mps 719 mmHg 40%
20:00 +31°C° 0.3 mm 3 mps 720 mmHg 48%
21:00 +31°C° 0.1 mm 3 mps 720 mmHg 53%
22:00 +30°C° 0.1 mm 3 mps 720 mmHg 57%
23:00 +29°C° 0.1 mm 3 mps 721 mmHg 62%

20 April, Tuesday

Time Temperature Precipitation Wind Pressure Humidity
00:00 +28°C° 0 mm 3 mps 720 mmHg 64%
01:00 +28°C° 0 mm 3 mps 720 mmHg 66%
02:00 +27°C° 0 mm 4 mps 720 mmHg 68%
03:00 +27°C° 0 mm 3 mps 720 mmHg 69%
04:00 +27°C° 0 mm 3 mps 720 mmHg 69%
05:00 +27°C° 0 mm 2 mps 720 mmHg 70%
06:00 +28°C° 0 mm 3 mps 721 mmHg 66%
07:00 +29°C° 0 mm 3 mps 721 mmHg 61%
08:00 +30°C° 0 mm 3 mps 722 mmHg 56%
09:00 +33°C° 0 mm 3 mps 722 mmHg 49%
10:00 +35°C° 0 mm 3 mps 722 mmHg 42%
11:00 +38°C° 0 mm 3 mps 722 mmHg 34%
12:00 +39°C° 0 mm 2 mps 721 mmHg 31%
13:00 +40°C° 0 mm 2 mps 720 mmHg 28%
14:00 +41°C° 0 mm 2 mps 719 mmHg 25%
15:00 +39°C° 0.2 mm 2 mps 719 mmHg 32%
16:00 +37°C° 0.2 mm 3 mps 719 mmHg 38%
17:00 +34°C° 0.2 mm 3 mps 718 mmHg 44%
18:00 +34°C° 0.1 mm 2 mps 718 mmHg 46%
19:00 +32°C° 0.1 mm 2 mps 719 mmHg 47%
20:00 +31°C° 0.1 mm 1 mps 719 mmHg 48%
21:00 +31°C° 0 mm 2 mps 719 mmHg 49%
22:00 +30°C° 0 mm 2 mps 720 mmHg 49%
23:00 +30°C° 0 mm 2 mps 720 mmHg 50%
Show more

We Need Your Consent

Meteoprog and our Service Providers may store and access personal data such as cookies, device identifiers or other similar technologies on your device and process such data to personalise content and ads, as well as provide social media features and to analyse the traffic.

  • Store and/or access information on your device

    Cookies, device identifiers or other information can be stored or accessed on your device for the purposes indicated above.

  • Personalised ads and content, ad and content measurement, audience insights, and products development

    Ads and content can be personalised based on a profile. More data can be added to better personalise ads and content. Ad and content performance can be measured. Insights about the audience who saw the ads and content can be derived. Such data can be used to develop or improve user’s experience, systems and software.

By clicking ‘I Agree’ you will allow the use of indicated cookies, device identifiers, web beacons or other similar technologies. Your settings can be changed in the browser on your device.

For certain purposes, legitimate interests may be relied on, rather than consent. You can read more about this in our Privacy and Cookie Policy.